Wetbulb
53.21 52.99 53.27 53.47 53.54 53.77 53.89 53.62 53.62 53.68 53.30 53.32 53.14 52.73 52.07 51.74 50.61 45.53 42.14 46.95 47.46 49.27 46.34 39.28 38.62 37.33 36.82 33.62 34.37 32.24 24.28 23.30 26.46 28.14 31.59 33.60 31.25 34.67 34.53 32.24 32.26 35.77 32.65 36.52 38.13
52.91 52.47 52.70 52.94 53.10 53.55 53.69 53.67 53.74 53.54 53.22 52.89 52.78 52.40 51.44 51.07 44.43 40.70 49.31 51.02 49.68 47.29 39.05 36.08 34.50 35.71 31.15 32.16 32.62 28.29 22.12 25.94 31.49 32.29 31.05 33.07 28.84 29.98 30.30 31.09 31.91 32.05 33.97 35.59 36.52
52.69 52.59 52.77 52.95 53.15 53.55 53.51 53.42 53.57 53.41 53.11 52.85 52.22 51.29 50.32 48.33 38.84 40.54 51.26 49.34 48.05 45.21 40.09 38.59 37.41 35.50 29.67 31.01 30.27 29.41 26.28 31.56 32.32 33.88 34.57 31.58 30.17 30.05 28.04 27.78 31.23 29.26 31.32 34.49 33.93
52.56 52.72 52.43 52.59 52.87 53.35 53.51 53.54 53.71 53.40 52.75 52.12 50.62 49.81 48.71 43.80 29.02 43.44 49.49 47.18 44.98 41.79 38.98 36.94 34.06 29.23 27.08 26.38 31.39 25.48 30.67 31.29 32.10 32.71 31.20 29.58 31.49 29.65 28.81 30.10 32.46 32.60 32.31 33.16 33.83
52.71 52.70 52.62 52.73 53.24 53.47 53.33 53.24 53.21 52.71 52.03 50.16 49.18 48.08 43.64 36.44 36.71 46.73 47.17 44.20 41.81 39.27 35.94 34.21 30.94 29.18 24.40 27.57 28.38 26.37 28.75 30.49 31.05 30.46 29.87 31.10 28.73 28.26 28.84 31.06 31.77 33.28 34.47 32.91 33.23
52.62 52.53 52.58 52.68 52.71 52.79 52.64 52.67 52.75 52.03 50.33 48.69 47.75 47.37 39.70 30.34 42.65 44.81 41.09 40.12 39.45 36.83 34.51 33.84 31.52 32.41 27.81 26.71 25.11 27.65 28.20 28.31 29.68 29.55 29.97 28.35 28.56 29.45 30.28 33.03 31.92 31.43 30.63 31.89 32.34
52.57 52.19 51.93 51.89 51.94 51.92 52.03 52.03 52.25 51.80 48.21 47.44 47.20 44.86 37.96 35.52 41.27 43.29 40.38 37.65 38.57 36.84 33.15 34.62 33.83 30.12 28.98 24.59 29.88 28.37 22.73 25.82 26.74 28.10 27.38 29.94 24.50 25.32 30.88 32.61 30.97 28.70 29.25 31.15 31.89
52.22 51.55 51.67 51.39 51.17 51.23 51.31 51.97 51.78 51.64 46.90 46.04 46.36 40.89 31.86 41.21 38.88 40.62 40.14 37.74 39.47 38.40 36.24 36.02 34.92 31.02 27.88 29.08 26.36 21.91 20.69 15.72 25.37 27.83 28.84 28.42 19.30 28.19 29.98 27.66 26.86 27.74 26.58 28.69 30.98
51.59 51.71 51.52 51.38 51.27 51.13 51.12 52.46 52.05 49.96 45.15 44.50 40.06 36.53 30.66 41.58 36.70 38.42 38.09 35.85 36.44 36.37 36.03 38.26 33.55 26.91 26.83 20.91 16.74 19.00 14.69 17.33 21.08 28.08 26.74 25.25 20.55 27.58 30.97 29.88 29.19 29.15 28.58 30.04 30.34
51.68 51.40 51.20 50.47 50.34 50.98 52.13 51.32 47.85 44.70 42.92 41.91 39.97 29.84 35.53 33.19 37.15 37.76 37.69 37.12 33.61 32.62 31.77 29.88 26.34 22.26 20.80 17.39 11.14 15.90 15.64 19.06 18.73 23.53 25.09 22.25 21.46 25.98 28.56 28.77 28.29 29.26 29.54 28.50 29.43
50.47 50.43 50.00 49.76 49.68 50.15 48.35 38.98 34.13 33.17 33.42 28.57 30.47 31.35 34.20 37.08 39.32 36.16 37.65 34.49 32.95 28.24 21.32 25.33 20.84 17.73 20.00 21.42 22.28 20.22 18.01 16.75 20.17 24.89 22.43 20.72 20.82 23.38 26.69 26.97 26.06 27.95 28.90 28.38 26.80
49.71 49.45 49.31 49.41 49.42 50.45 42.99 35.23 36.47 35.09 28.01 33.40 34.33 34.10 36.13 35.45 30.50 34.14 36.47 27.87 26.42 21.74 23.26 20.46 16.89 23.60 25.69 24.17 21.47 20.13 17.59 16.41 20.67 23.30 21.51 19.20 18.22 22.64 24.85 25.38 26.35 25.40 23.37 24.87 25.91
49.47 49.48 48.83 48.75 49.20 43.41 37.39 36.67 40.61 38.33 25.76 30.05 34.65 32.81 33.13 33.72 29.41 30.08 32.71 29.09 23.80 20.54 20.58 15.68 20.43 25.81 23.19 20.52 19.38 19.29 17.36 17.79 15.71 19.58 20.69 17.69 14.19 18.24 23.41 25.45 26.76 27.93 26.89 26.55 25.30
48.74 49.00 48.31 48.96 42.50 40.34 35.85 40.02 40.06 37.73 18.25 28.85 28.44 31.90 33.88 32.98 26.79 35.53 34.16 28.83 24.49 18.91 20.55 18.15 23.46 22.51 20.13 19.10 20.25 15.07 22.25 19.89 17.72 13.96 6.65 16.77 4.94 14.45 20.04 21.48 23.68 25.12 25.48 25.18 25.72
48.34 48.11 47.99 47.86 39.46 37.99 40.32 40.94 38.24 32.72 13.70 27.71 27.50 35.83 33.27 27.62 29.89 29.99 33.67 27.82 20.82 22.01 18.06 17.03 19.47 19.65 17.72 19.78 22.43 15.86 21.93 19.02 17.40 12.51 8.35 11.61 8.35 10.73 20.58 19.03 22.28 22.85 24.13 24.45 24.82
47.96 47.80 48.16 42.12 39.41 40.36 41.33 40.42 34.79 19.91 11.79 24.44 27.81 26.89 26.06 28.31 28.00 30.11 28.56 30.05 28.44 21.68 23.39 21.01 25.94 21.74 20.54 23.66 22.42 23.22 16.78 16.29 11.22 1.19 -7.38 7.77 10.50 8.70 16.01 19.54 20.79 21.42 21.60 23.44 23.55
47.47 47.79 45.17 42.88 36.33 40.86 39.47 33.11 20.80 13.76 27.58 22.70 23.72 25.25 24.49 23.63 24.17 21.89 19.55 15.79 10.41 7.86 7.34 17.66 18.66 22.26 23.73 14.44 13.93 8.00 4.39 -0.43 -8.45 -10.14 -8.76 12.99 7.15 10.99 19.67 21.31 21.49 19.54 21.34 22.67 23.47
47.02 46.77 43.27 41.79 40.24 38.72 35.05 25.73 12.16 16.05 19.78 26.35 24.62 24.54 20.35 21.70 20.85 17.93 12.85 8.59 18.59 10.17 8.29 6.84 2.60 16.38 21.04 17.78 12.27 8.70 6.50 0.02 -2.92 -4.48 1.79 12.47 -6.04 13.89 19.96 23.27 23.79 22.72 21.92 22.85 21.25
45.86 37.93 37.74 39.08 40.48 36.63 28.25 14.67 17.29 23.36 24.91 22.65 21.01 15.26 17.44 21.34 16.91 12.80 8.75 8.98 13.96 13.72 8.38 6.09 4.71 18.73 20.35 21.12 17.60 6.11 -1.02 12.32 6.89 -10.06 -6.18 1.92 10.71 18.59 21.29 18.84 19.45 19.57 21.66 18.94 19.64
36.38 34.98 36.34 39.68 38.54 33.69 22.45 23.15 23.31 28.51 27.37 23.72 14.46 15.59 5.60 13.40 8.28 9.16 9.74 16.49 10.41 18.53 18.92 5.64 3.46 15.96 17.74 18.75 17.72 15.65 19.83 6.38 -0.38 -3.07 -14.78 -3.40 3.17 4.10 11.64 11.11 18.71 17.20 18.24 18.00 17.34
35.19 28.89 36.41 39.01 36.55 26.94 17.12 17.78 24.99 29.90 28.59 21.43 18.57 17.79 16.24 14.46 11.27 7.32 12.75 18.08 19.00 15.09 17.83 0.16 3.60 6.56 10.63 2.92 3.72 6.21 0.91 9.31 6.56 4.27 -3.31 -11.24 -2.34 7.35 3.77 6.44 10.70 14.31 19.63 16.19 14.45
34.96 24.40 36.80 37.22 23.36 17.32 16.03 20.86 29.84 26.52 28.60 25.48 23.07 21.12 18.56 13.23 6.99 10.91 13.53 17.18 20.63 18.54 3.43 9.53 10.06 0.75 0.76 8.96 12.39 10.88 2.10 6.32 6.45 -3.03 -6.54 -6.61 1.87 5.22 3.72 13.10 10.64 17.32 20.33 18.94 16.91
31.04 27.23 35.55 35.22 19.43 21.35 24.54 24.77 27.38 26.04 24.59 18.79 19.16 23.53 19.88 13.24 7.88 12.28 15.42 20.07 21.35 17.02 7.75 12.60 8.87 2.74 -0.75 0.49 8.80 -1.56 11.43 15.24 8.38 -1.32 -5.34 -10.05 -1.30 10.86 18.71 17.39 19.15 18.72 17.26 16.32 16.26
31.43 24.93 26.78 27.52 27.86 23.67 22.24 19.91 18.57 27.27 23.93 25.35 22.69 23.93 14.93 7.61 15.25 9.89 14.98 19.77 21.27 19.21 24.16 16.40 -4.96 -1.39 -2.81 -1.54 -8.01 -4.77 -1.38 1.43 0.35 0.84 -6.21 1.71 3.26 11.18 15.30 15.21 18.15 18.76 16.66 10.75 8.12
31.49 26.36 24.87 18.74 22.26 25.64 25.70 22.95 21.55 20.63 25.18 24.44 17.67 19.06 16.99 13.64 7.81 12.12 13.92 16.21 18.60 20.79 12.04 11.44 -0.18 -8.42 -0.08 2.20 -9.28 0.24 0.50 3.50 -6.81 6.79 4.17 4.83 3.88 11.74 14.99 16.53 17.81 13.19 11.29 9.86 9.47
29.98 27.49 26.62 20.61 24.96 23.71 23.96 22.03 22.05 22.95 21.94 18.38 16.84 19.90 17.52 14.70 15.25 12.44 13.81 14.07 11.70 12.18 8.36 9.92 3.62 -4.89 3.55 -2.73 -8.49 -7.31 6.24 7.87 8.62 7.43 8.47 10.54 4.85 11.15 15.48 16.39 16.49 12.25 4.69 7.72 7.20
34.37 33.81 29.91 25.13 23.66 20.37 22.24 23.31 23.34 24.97 24.95 24.90 21.72 19.20 17.32 19.22 19.87 20.37 20.02 18.68 15.11 11.42 8.61 9.61 5.57 -2.64 -6.94 -5.63 -3.63 3.27 4.30 1.21 1.09 -1.64 3.52 3.88 8.25 8.12 15.03 15.53 16.39 9.76 0.70 2.11 5.58
MSLP
1024.74 1024.35 1024.00 1023.63 1023.20 1022.75 1022.25 1021.75 1021.29 1020.84 1020.36 1019.98 1019.56 1019.19 1018.90 1018.62 1018.50 1018.08 1017.66 1017.43 1017.58 1017.48 1017.26 1017.15 1016.95 1017.01 1016.83 1016.97 1016.75 1016.76 1017.42 1016.60 1015.74 1014.96 1012.80 1013.17 1013.57 1013.09 1012.78 1012.18 1011.76 1011.02 1011.28 1011.30 1010.12
1024.77 1024.38 1023.99 1023.58 1023.09 1022.68 1022.16 1021.65 1021.20 1020.73 1020.26 1019.83 1019.42 1019.09 1018.82 1018.55 1018.47 1017.88 1017.40 1017.45 1017.57 1017.56 1017.62 1017.70 1017.74 1017.49 1017.33 1017.19 1016.98 1017.34 1017.04 1015.58 1014.94 1014.45 1013.62 1013.37 1013.95 1013.74 1013.32 1012.23 1010.81 1011.26 1011.26 1011.30 1010.72
1024.90 1024.49 1024.06 1023.60 1023.11 1022.56 1021.95 1021.42 1020.86 1020.33 1019.94 1019.50 1019.04 1018.72 1018.62 1018.48 1018.56 1017.90 1017.54 1017.70 1017.87 1017.93 1017.91 1017.94 1017.91 1017.75 1017.83 1017.51 1017.25 1016.73 1015.97 1015.49 1014.93 1014.65 1014.25 1013.62 1013.47 1013.44 1013.17 1011.80 1011.48 1011.49 1011.29 1011.38 1011.22
1024.91 1024.50 1023.98 1023.46 1022.88 1022.25 1021.66 1021.14 1020.54 1020.03 1019.61 1019.10 1018.79 1018.55 1018.46 1018.53 1018.63 1017.74 1017.68 1017.85 1017.92 1017.96 1018.06 1018.03 1018.09 1018.16 1018.36 1018.17 1017.56 1016.96 1016.45 1016.00 1015.18 1014.98 1014.69 1014.29 1013.49 1012.86 1012.69 1011.43 1011.82 1011.33 1011.30 1011.17 1010.94
1025.01 1024.54 1024.00 1023.36 1022.71 1022.08 1021.51 1020.96 1020.34 1019.77 1019.25 1018.91 1018.70 1018.61 1018.55 1018.48 1017.99 1017.86 1017.93 1018.06 1018.11 1018.13 1018.28 1018.33 1018.46 1018.61 1018.77 1018.41 1018.07 1017.63 1016.33 1016.04 1015.61 1015.35 1014.89 1014.47 1013.49 1012.82 1011.61 1011.82 1011.48 1011.16 1010.89 1010.83 1010.64
1025.09 1024.60 1024.03 1023.34 1022.62 1021.87 1021.19 1020.65 1020.08 1019.58 1019.09 1018.86 1018.72 1018.74 1018.78 1018.40 1017.64 1017.85 1018.20 1018.29 1018.31 1018.32 1018.50 1018.62 1018.84 1018.78 1018.73 1018.65 1018.54 1017.15 1016.78 1016.16 1016.00 1015.21 1014.63 1014.55 1012.39 1012.84 1011.61 1011.11 1010.95 1010.77 1010.53 1010.20 1010.11
1025.14 1024.63 1024.05 1023.40 1022.64 1021.79 1020.80 1020.13 1019.60 1019.17 1018.89 1018.77 1018.67 1018.69 1018.64 1018.34 1017.69 1017.92 1018.03 1018.17 1018.19 1018.43 1018.64 1018.67 1018.94 1019.30 1019.14 1018.69 1018.09 1017.62 1016.74 1016.20 1016.11 1015.07 1014.65 1014.09 1012.16 1012.09 1011.45 1010.58 1010.23 1009.94 1009.78 1009.47 1009.38
1025.24 1024.74 1024.08 1023.38 1022.71 1021.86 1020.84 1019.64 1019.17 1018.63 1018.70 1018.64 1018.61 1018.82 1018.50 1017.92 1017.92 1018.03 1018.09 1018.17 1018.05 1018.25 1018.37 1018.38 1018.74 1019.24 1019.38 1019.01 1018.70 1018.57 1017.83 1016.15 1015.35 1015.00 1014.54 1014.28 1011.65 1011.75 1011.13 1010.61 1010.30 1009.96 1009.60 1009.39 1008.94
1025.31 1024.76 1024.09 1023.32 1022.57 1021.74 1020.62 1019.27 1018.58 1018.01 1018.46 1018.61 1018.85 1018.76 1018.42 1018.03 1018.10 1018.20 1018.21 1018.36 1018.34 1018.18 1018.18 1018.23 1018.77 1019.34 1019.47 1019.50 1019.49 1018.99 1017.39 1016.52 1015.13 1015.15 1014.53 1014.22 1011.59 1011.00 1010.65 1010.41 1009.84 1009.60 1009.05 1008.77 1008.49
1025.22 1024.72 1024.05 1023.39 1022.56 1021.60 1020.44 1019.12 1018.53 1018.43 1018.52 1018.55 1018.64 1019.25 1018.64 1018.87 1018.59 1018.35 1018.22 1018.30 1018.53 1018.52 1018.47 1018.62 1019.28 1019.60 1019.83 1020.09 1019.22 1018.20 1017.59 1016.61 1015.72 1015.29 1014.37 1013.37 1011.84 1010.65 1010.39 1009.85 1009.17 1008.77 1008.41 1008.36 1008.07
1025.21 1024.62 1023.90 1023.30 1022.57 1021.75 1020.72 1020.03 1020.44 1019.89 1020.41 1020.62 1020.49 1020.10 1019.44 1019.13 1018.41 1018.38 1018.21 1018.36 1018.65 1019.02 1019.28 1019.14 1019.56 1019.69 1019.38 1019.31 1018.96 1018.47 1017.73 1016.91 1015.96 1015.66 1014.61 1013.56 1012.24 1010.99 1010.17 1009.42 1008.82 1008.42 1008.29 1008.00 1008.26
1025.19 1024.53 1023.89 1023.00 1022.49 1021.58 1021.36 1022.26 1023.24 1023.56 1022.38 1020.68 1020.32 1020.02 1019.48 1019.47 1019.12 1018.61 1018.55 1018.96 1019.09 1019.47 1019.59 1019.86 1019.34 1018.92 1019.07 1018.88 1018.54 1018.19 1017.45 1016.63 1015.87 1015.32 1014.69 1013.32 1012.08 1010.90 1009.32 1008.98 1008.50 1008.38 1008.57 1008.66 1008.73
1025.34 1024.70 1023.89 1023.06 1022.24 1022.27 1022.87 1023.53 1023.39 1023.42 1023.38 1020.92 1020.05 1019.81 1019.58 1019.72 1019.19 1018.61 1018.59 1018.74 1019.13 1019.44 1019.93 1020.28 1018.92 1018.77 1018.78 1018.65 1018.19 1017.95 1017.42 1016.64 1016.44 1015.43 1014.75 1013.74 1012.34 1010.78 1008.84 1008.89 1007.82 1007.54 1008.38 1008.84 1009.16
1025.39 1024.88 1024.29 1023.28 1022.47 1022.75 1023.39 1023.61 1023.53 1023.42 1023.24 1020.91 1019.97 1019.61 1019.53 1019.43 1019.22 1018.44 1018.57 1019.27 1019.75 1019.83 1019.97 1019.68 1018.84 1018.90 1018.79 1018.72 1018.37 1017.72 1017.43 1017.21 1016.86 1016.63 1015.66 1014.52 1013.27 1011.26 1009.53 1008.77 1008.02 1008.42 1009.30 1009.73 1009.80
1025.54 1024.95 1024.31 1023.65 1023.89 1023.72 1023.92 1023.49 1023.47 1023.90 1022.82 1020.32 1019.63 1019.32 1019.29 1019.80 1019.53 1019.14 1019.19 1019.53 1020.01 1020.33 1021.08 1019.84 1019.42 1019.01 1018.91 1018.52 1018.16 1017.79 1017.66 1017.81 1017.69 1017.48 1017.12 1014.14 1014.47 1012.29 1010.22 1009.48 1009.00 1009.57 1009.98 1010.18 1010.23
1025.41 1024.81 1024.20 1023.91 1023.92 1024.08 1023.74 1023.59 1023.77 1023.78 1021.69 1020.26 1019.79 1019.81 1020.14 1020.14 1019.82 1019.86 1020.14 1020.12 1020.12 1020.14 1020.36 1020.01 1019.46 1019.20 1018.38 1018.20 1018.26 1018.25 1018.44 1018.41 1018.15 1018.50 1018.50 1015.63 1014.87 1012.63 1011.03 1010.48 1010.40 1010.61 1010.65 1010.88 1010.94
1025.23 1024.55 1024.02 1024.15 1024.61 1024.02 1023.81 1023.91 1024.17 1023.16 1021.15 1021.34 1021.12 1021.18 1021.29 1021.03 1021.14 1021.80 1022.19 1022.31 1022.58 1022.05 1021.57 1021.14 1019.44 1018.92 1018.70 1019.04 1019.04 1019.49 1019.94 1020.22 1020.30 1020.26 1019.18 1016.44 1015.17 1013.26 1011.88 1011.32 1011.36 1011.54 1011.43 1011.16 1011.09
1025.02 1024.27 1024.03 1024.22 1024.35 1024.09 1024.07 1024.32 1024.34 1023.42 1022.95 1022.54 1022.46 1022.36 1022.47 1022.88 1023.04 1023.55 1023.80 1024.11 1024.22 1024.62 1023.77 1022.48 1020.39 1020.40 1020.00 1020.16 1019.92 1019.97 1020.80 1021.44 1021.10 1021.26 1019.68 1017.18 1015.62 1013.17 1012.36 1011.69 1011.72 1011.80 1011.60 1011.44 1011.47
1025.02 1024.63 1024.32 1024.23 1023.93 1024.13 1024.62 1024.84 1024.10 1023.80 1023.80 1023.77 1023.41 1023.34 1023.60 1023.95 1024.93 1025.07 1025.30 1025.00 1024.95 1025.39 1026.22 1024.58 1022.44 1021.23 1020.62 1020.09 1020.16 1020.15 1020.94 1020.63 1020.97 1020.79 1020.79 1018.37 1015.84 1013.76 1012.92 1012.63 1012.37 1012.28 1011.96 1011.82 1011.64
1025.57 1025.37 1024.84 1024.43 1024.19 1024.47 1025.27 1025.08 1024.12 1023.80 1024.06 1024.45 1025.21 1025.07 1025.45 1025.57 1026.43 1026.53 1025.87 1024.62 1025.05 1025.30 1025.72 1025.68 1023.45 1021.83 1020.92 1020.38 1020.15 1020.90 1020.46 1020.81 1021.57 1021.68 1021.13 1019.24 1017.33 1015.62 1014.39 1013.72 1012.95 1012.28 1012.23 1012.03 1011.73
1025.60 1025.74 1025.04 1024.57 1024.71 1025.27 1025.77 1025.29 1024.58 1024.17 1024.40 1025.10 1025.49 1025.87 1026.20 1026.95 1027.22 1027.03 1025.96 1024.47 1024.64 1025.00 1025.61 1026.03 1026.00 1023.54 1023.07 1022.08 1021.91 1021.18 1021.36 1021.35 1021.49 1021.99 1021.74 1020.87 1018.08 1015.96 1015.50 1014.70 1013.86 1012.91 1012.45 1012.36 1012.14
1025.76 1025.71 1024.57 1024.29 1025.26 1025.72 1026.12 1025.17 1024.73 1024.44 1024.41 1024.77 1025.17 1025.88 1026.42 1027.10 1027.12 1026.85 1025.56 1024.40 1024.26 1024.93 1025.63 1025.84 1025.36 1024.73 1024.02 1022.70 1022.47 1022.28 1022.19 1021.88 1022.20 1023.12 1022.70 1022.17 1017.51 1015.55 1015.13 1014.62 1014.23 1013.20 1012.69 1012.53 1012.48
1026.12 1025.79 1024.91 1024.88 1025.36 1025.70 1025.46 1025.34 1024.94 1024.77 1024.96 1025.08 1025.44 1025.56 1026.28 1027.05 1027.28 1026.32 1025.13 1024.12 1024.24 1024.93 1025.23 1025.43 1025.44 1025.39 1024.59 1024.23 1023.66 1023.67 1022.87 1022.76 1023.06 1023.36 1022.73 1022.27 1018.30 1015.38 1015.10 1014.18 1013.54 1013.38 1013.00 1012.98 1012.77
1026.36 1026.19 1025.66 1025.64 1025.61 1025.68 1025.58 1025.34 1024.98 1024.90 1025.05 1025.22 1025.30 1025.60 1026.25 1026.76 1026.66 1025.70 1024.83 1024.31 1024.18 1024.52 1024.58 1025.04 1025.97 1027.16 1027.37 1026.45 1026.22 1025.54 1023.76 1023.46 1023.67 1023.48 1022.32 1020.73 1018.37 1016.48 1015.19 1014.47 1013.66 1013.43 1013.46 1013.50 1013.16
1025.88 1025.79 1025.50 1025.89 1025.60 1025.51 1025.45 1025.24 1024.83 1024.67 1024.67 1024.83 1025.33 1025.58 1026.08 1026.07 1025.98 1025.06 1024.69 1024.40 1024.13 1023.83 1024.60 1025.53 1026.18 1026.77 1026.55 1026.18 1026.01 1025.30 1024.37 1023.13 1023.35 1022.09 1021.97 1019.35 1018.50 1016.66 1015.55 1014.75 1014.28 1014.25 1014.26 1014.15 1013.49
1024.90 1025.14 1025.56 1025.04 1024.99 1025.27 1024.96 1024.50 1024.28 1024.11 1024.52 1024.36 1024.66 1025.16 1025.74 1025.74 1025.64 1024.35 1024.60 1024.60 1024.90 1024.39 1024.97 1025.57 1025.95 1026.40 1026.53 1025.23 1025.20 1025.15 1023.51 1022.68 1022.02 1021.40 1020.53 1019.36 1018.04 1016.43 1015.47 1014.81 1014.70 1014.87 1015.15 1015.09 1014.19
1023.63 1023.88 1024.10 1023.95 1024.07 1024.45 1023.78 1023.08 1023.29 1023.73 1023.56 1023.38 1023.88 1024.43 1024.51 1024.22 1024.27 1024.03 1023.97 1023.74 1024.54 1024.93 1025.34 1025.72 1025.89 1026.83 1026.56 1025.35 1024.75 1024.24 1022.28 1021.77 1021.33 1020.73 1020.04 1019.34 1018.01 1016.78 1015.70 1015.12 1015.13 1015.46 1016.10 1015.86 1014.78
Wind_Speed
18 19 19 20 19 19 20 20 20 21 20 20 20 19 18 15 13 6 4 2 4 6 8 4 8 7 5 2 4 1 1 6 9 11 19 4 6 5 7 5 4 3 2 6 13
19 20 20 20 20 20 19 20 20 21 20 19 18 18 16 13 7 6 5 7 7 8 5 7 6 7 3 3 2 4 5 9 7 9 12 16 2 7 7 16 19 11 4 7 11
19 20 21 21 22 22 23 23 22 23 20 20 18 13 11 7 3 2 7 7 7 6 4 3 5 4 1 2 4 6 14 17 13 17 17 18 16 5 6 17 16 10 9 10 6
20 21 23 24 24 24 25 26 25 25 24 21 13 8 6 2 5 3 7 6 5 3 5 6 5 3 2 4 5 10 13 16 17 10 12 18 20 19 13 23 10 14 8 9 14
21 22 23 24 25 26 26 26 26 24 25 15 10 4 3 1 2 4 7 3 2 3 6 5 5 3 3 5 9 14 20 13 13 12 15 16 19 21 24 14 10 14 16 12 12
21 22 23 25 26 28 29 28 28 24 17 12 5 2 1 1 4 8 7 1 3 4 5 5 3 5 7 7 6 5 14 18 14 19 17 19 29 19 26 23 18 14 11 10 11
21 23 24 26 27 30 31 31 28 24 12 7 4 3 2 4 2 6 6 2 1 2 3 3 4 3 5 6 8 7 23 21 17 16 19 23 28 23 22 25 20 13 10 10 9
21 23 25 26 28 29 32 31 27 19 8 6 4 2 3 2 3 4 2 4 5 5 4 6 3 3 4 5 5 9 6 10 7 8 11 16 23 17 9 9 10 12 9 8 11
21 22 25 27 27 29 30 28 26 6 2 3 2 2 2 0 3 4 1 3 6 4 5 4 1 4 3 5 4 6 15 18 20 15 18 18 26 23 20 17 16 13 12 11 11
21 23 25 27 27 29 27 30 8 5 4 4 2 2 2 4 3 2 4 2 3 5 5 3 2 2 3 1 14 22 25 23 23 13 20 22 25 21 17 15 18 17 14 12 12
23 25 27 27 28 28 15 6 8 7 9 2 8 5 5 8 5 3 0 3 2 2 3 3 7 12 17 8 14 18 17 20 21 20 19 19 21 23 19 17 15 16 17 13 5
24 26 27 28 30 20 6 6 4 3 9 6 7 5 5 1 3 1 2 2 1 8 6 5 12 15 14 13 19 17 22 21 16 17 17 19 21 22 20 17 13 8 3 6 5
23 26 28 30 27 5 5 4 3 4 3 7 3 2 0 1 4 3 4 1 6 5 4 5 13 15 11 16 19 17 18 15 17 18 18 17 13 18 25 17 17 14 7 6 8
24 25 27 30 6 5 3 3 4 4 4 2 1 2 1 3 4 4 3 0 4 5 4 9 4 13 14 15 16 15 12 13 17 16 13 6 15 17 16 13 10 11 8 7 10
22 25 27 18 4 4 5 5 2 3 5 2 2 1 1 1 6 1 4 2 6 11 1 10 14 19 16 13 13 10 5 12 11 16 7 20 4 9 12 6 5 10 10 9 7
23 24 27 5 3 1 6 6 3 6 6 2 2 3 4 3 4 3 4 3 9 8 9 13 10 5 14 8 5 9 4 14 6 3 3 6 6 5 7 3 5 5 7 7 7
22 25 14 2 4 8 6 3 6 5 5 8 5 5 14 6 5 6 7 8 2 9 9 16 7 3 5 9 8 9 6 5 8 6 7 9 9 4 5 6 3 2 9 8 7
22 24 4 2 4 6 4 6 4 3 2 5 7 17 4 8 6 9 6 6 6 5 6 7 10 9 17 13 11 5 6 3 5 5 13 13 4 3 2 4 2 6 8 7 6
17 4 2 3 4 4 5 4 6 2 3 7 8 4 5 3 5 9 4 4 3 3 5 8 7 23 16 19 3 8 3 6 4 0 4 4 7 5 3 3 7 8 9 8 9
3 3 2 6 6 4 5 5 1 4 4 4 1 1 3 6 5 7 3 5 1 6 2 7 19 4 12 9 5 5 5 6 5 5 6 6 5 4 14 8 16 14 12 11 8
3 4 3 5 4 4 3 5 3 2 6 1 3 5 5 4 1 3 7 10 5 4 5 2 6 10 9 3 7 8 4 3 1 3 2 5 7 8 7 5 12 12 14 8 9
1 3 2 3 4 1 1 4 3 2 1 3 2 3 4 2 4 4 7 5 9 10 2 6 5 8 13 13 7 6 4 5 2 7 3 4 10 3 4 8 4 14 15 11 9
1 3 3 3 2 2 3 3 4 2 4 2 4 5 3 3 5 6 7 3 13 7 4 6 4 10 10 9 6 3 3 5 2 2 6 3 9 6 16 15 15 14 11 10 13
1 3 3 3 1 3 2 4 3 2 3 5 5 3 2 2 7 8 11 8 14 15 22 4 1 8 9 12 3 8 8 2 5 3 5 10 14 19 19 16 18 16 9 8 9
3 5 3 3 4 3 2 2 8 4 5 3 3 6 5 6 5 14 7 16 11 8 3 4 6 5 9 15 5 11 12 16 4 14 7 12 7 18 15 14 14 8 8 11 14
5 3 2 3 1 5 5 6 8 5 5 5 6 5 5 7 10 24 16 11 6 4 3 3 5 3 14 9 5 5 13 13 13 8 7 8 9 7 9 9 10 9 7 10 14
3 1 4 5 5 5 6 7 6 4 7 6 5 5 9 14 8 12 12 16 12 10 2 3 0 3 7 3 4 2 7 4 4 4 5 2 8 7 18 17 14 8 4 7 12
Wind_Direction
6 5 2 357 352 349 347 347 342 340 340 335 330 327 327 326 330 302 247 102 112 28 351 335 17 1 350 211 204 157 282 240 242 251 271 8 9 326 300 276 294 264 7 253 307
5 3 360 355 352 348 345 344 340 339 335 331 325 320 320 324 315 282 146 111 80 31 13 13 355 323 353 253 249 151 207 231 218 263 290 307 344 298 314 304 287 298 312 357 330
4 -0 356 354 351 347 345 343 339 338 335 327 320 314 311 328 284 123 106 89 65 4 350 305 278 308 289 290 261 224 244 262 262 293 303 306 299 248 267 267 284 285 304 315 306
2 358 356 353 349 346 344 342 338 339 334 329 325 315 318 300 357 142 116 91 69 334 326 344 358 27 295 262 281 297 276 282 293 296 302 287 294 282 247 266 274 286 263 287 290
359 355 352 348 344 342 339 338 338 337 335 332 331 327 343 342 242 118 107 95 283 334 351 356 8 344 273 280 312 267 277 284 306 312 293 296 288 278 280 292 262 268 277 272 262
355 352 349 346 343 340 336 335 335 335 339 330 328 331 295 314 125 129 120 32 331 28 351 353 322 295 269 241 251 291 302 291 298 290 290 285 276 282 285 276 270 258 252 268 266
354 352 349 345 342 338 333 331 332 330 338 330 315 277 279 237 67 145 132 211 211 144 304 286 340 45 323 292 277 290 302 296 279 272 273 277 278 276 277 276 267 240 233 254 241
356 350 345 342 341 338 333 325 328 324 328 317 313 302 257 349 53 90 201 269 273 199 219 247 249 261 226 279 301 301 270 284 291 299 314 307 291 293 297 304 288 294 277 272 273
354 347 343 343 339 337 331 323 323 308 269 286 350 179 297 160 71 347 65 328 331 294 281 250 107 222 319 282 325 234 282 295 311 321 298 292 291 298 292 288 287 279 270 276 265
350 345 342 341 338 337 332 324 15 46 321 250 313 25 28 328 6 318 268 255 270 321 318 126 170 264 275 31 298 314 307 304 301 312 310 297 291 294 300 294 286 281 279 268 262
348 343 341 339 337 335 335 360 9 350 35 306 296 266 295 320 263 217 131 337 228 265 302 248 299 280 293 273 295 311 311 307 307 307 305 301 292 294 287 281 281 282 286 287 111
345 344 343 337 337 338 359 63 104 246 315 295 266 263 261 7 320 173 338 315 305 272 303 336 266 272 304 310 307 301 297 300 300 308 300 293 293 289 280 278 276 285 119 121 106
345 347 343 338 330 39 74 59 332 90 279 296 227 265 252 341 315 256 166 299 238 260 258 216 272 309 325 319 306 304 298 303 303 313 301 296 291 297 300 290 275 259 154 87 70
344 346 344 335 23 335 49 315 314 90 52 244 199 230 209 215 287 279 156 251 316 287 281 270 252 313 311 302 294 297 303 302 305 323 304 320 299 301 298 314 52 82 77 54 38
342 343 343 340 278 11 313 297 129 42 358 220 189 74 301 19 299 58 358 43 248 272 354 262 302 297 296 278 291 271 306 289 295 290 325 305 228 283 309 266 93 57 46 27 10
337 338 338 340 341 332 315 312 57 40 271 343 98 5 358 307 279 16 4 357 274 297 239 261 271 259 260 288 287 304 335 304 316 89 2 259 346 261 292 345 51 13 18 340 298
333 333 335 29 319 321 326 41 14 122 325 334 341 3 327 330 334 51 328 334 323 343 343 316 278 313 27 340 342 25 4 310 351 1 233 317 335 290 24 53 63 18 329 320 339
330 330 326 80 337 334 14 36 97 243 324 9 349 317 278 22 339 348 336 337 28 40 307 348 322 23 339 312 285 267 172 199 295 302 298 313 255 290 227 104 50 342 299 303 316
328 320 348 346 349 24 59 42 211 288 345 335 327 9 311 34 25 15 326 252 116 73 21 310 271 319 287 303 266 295 1 230 265 54 47 254 298 285 144 342 313 310 330 310 323
328 329 341 321 2 50 77 249 335 25 23 45 257 52 293 326 24 27 312 250 180 46 73 261 302 324 328 333 355 336 289 319 344 306 306 295 285 251 311 308 330 323 324 314 311
34 352 287 344 45 46 150 238 303 344 64 328 258 289 264 330 208 251 257 286 49 333 39 222 218 289 353 317 289 326 331 297 200 165 284 316 279 236 242 261 304 307 317 315 313
20 313 249 59 59 113 255 208 218 259 213 253 291 253 249 330 278 243 249 221 4 337 323 232 271 284 248 259 241 210 252 190 319 322 230 191 281 256 229 301 277 310 318 328 322
264 263 311 82 121 217 275 269 251 233 221 201 251 222 157 197 318 240 254 264 309 345 297 279 239 314 324 354 355 36 339 324 10 47 215 156 272 303 322 323 322 318 315 326 331
188 312 306 37 193 162 230 240 260 323 260 252 250 278 358 271 217 272 268 308 327 302 297 42 306 177 255 250 180 310 289 291 156 243 245 241 290 307 314 320 319 326 327 323 317
156 228 200 259 260 197 122 225 275 266 201 214 296 220 221 277 275 264 271 300 305 281 41 121 258 182 246 256 206 253 273 288 182 261 252 287 295 295 302 305 308 304 323 336 328
170 184 158 232 205 182 211 208 248 241 179 234 211 246 238 256 257 291 301 297 266 307 53 264 269 70 294 280 201 264 268 255 261 266 237 263 279 248 289 304 311 307 328 334 322
187 162 145 202 173 158 214 195 213 178 216 225 230 248 251 267 236 258 262 272 244 262 268 239 215 24 271 296 329 307 256 237 266 240 174 281 253 312 324 323 323 311 328 307 308